Location: Shades State Park
(39.9310°N, 87.0690°W)
Time: 02:51:42
(UTC-04:00)

Daily predictions for brighter satellites

Satellite Brightness Start Highest point End
(mag) Time Altitude Azimuth Time Altitude Azimuth Time Altitude Azimuth
Cosmos 2123 Rocket 4.4 00:03:46 10° N 00:08:49 60° N 00:08:49 60° N
Lacrosse 5 3.8 00:10:05 10° NNW 00:13:24 23° NNE 00:13:24 23° NNE
CZ-2C R/B 4.2 00:14:13 10° NNE 00:16:47 29° NNE 00:16:47 29° NNE
H-2A R/B 4.4 00:19:45 13° W 00:19:46 13° W 00:22:11 10° WNW
CZ-4C R/B 3.9 00:26:51 25° NNE 00:26:51 25° NNE 00:29:21 10° NNE
ATLAS 5 CENTAUR R/B 3.6 00:26:50 10° NNW 00:31:12 36° NNE 00:31:12 36° NNE
USA 267 4.4 00:33:41 10° NE 00:39:38 39° NNW 00:45:35 10° W
BREEZE-M DEB (TANK) 4.3 00:26:25 10° WNW 00:44:24 68° W 00:44:24 68° W
USA 234 4.2 01:15:12 39° WNW 01:15:12 39° WNW 01:19:06 10° NW
ADEOS Rocket 4.4 01:10:03 10° NNE 01:14:09 34° NE 01:14:09 34° NE
Cosmos 1943 Rocket 4.0 01:11:13 10° NNW 01:13:38 27° NNW 01:13:38 27° NNW
Mayak 2.0 01:14:31 10° NNE 01:14:37 11° NNE 01:14:37 11° NNE
Cosmos 2369 Rocket 4.4 01:35:16 10° NW 01:37:01 19° NW 01:37:01 19° NW
CZ-4C R/B 4.5 02:11:59 16° NW 02:13:07 17° NNW 02:17:04 10° N
Cosmos 2034 Rocket 4.4 03:17:52 58° NNE 03:17:52 58° NNE 03:22:50 10° N
Cosmos 1980 Rocket 4.3 03:22:15 10° N 03:26:36 22° NE 03:30:56 10° ESE
Cosmos 1607 4.4 03:29:40 60° ENE 03:29:40 60° ENE 03:35:08 10° NE
Cosmos 1697 Rocket 3.8 03:25:00 10° N 03:30:18 39° ENE 03:31:12 37° E
CZ-2D R/B 3.2 03:25:54 10° NNE 03:30:01 41° ENE 03:30:01 41° ENE
Cosmos 1092 Rocket 4.5 03:26:23 10° N 03:32:28 53° E 03:32:43 52° E
Cosmos 2082 Rocket 3.0 03:35:02 46° ENE 03:35:02 46° ENE 03:39:22 10° NNE
Lacrosse 4 Rocket 3.6 03:30:44 10° N 03:33:35 26° NNE 03:33:35 26° NNE
SL-16 R/B 2.8 03:34:38 65° ENE 03:34:41 65° ENE 03:40:54 10° N
ARIANE 5 R/B 3.7 03:39:10 10° NNE 03:43:38 38° E 03:43:38 38° E
ADEOS II 4.2 03:58:36 10° NE 04:02:23 20° E 04:04:45 15° SE
Cosmos 1656 4.5 03:59:24 10° NNW 04:03:11 42° NW 04:03:11 42° NW
IRS-1D 3.7 04:01:14 10° NNE 04:05:48 69° NNE 04:05:48 69° NNE
Nadezhda 4 Rocket 4.5 04:06:16 10° NNW 04:11:00 45° WNW 04:11:00 45° WNW
NPP 4.3 04:08:08 10° N 04:12:25 44° NW 04:12:25 44° NW
Resurs 1-4 Rocket 2.3 04:08:35 10° N 04:13:07 61° NNW 04:13:07 61° NNW
Cosmos 1833 Rocket 2.9 04:14:17 61° NW 04:14:17 61° NW 04:19:28 10° NNE
Cosmos 1634 Rocket 3.8 04:18:31 76° SW 04:18:59 82° W 04:25:17 10° N
Helios 1A Rocket 3.8 04:15:32 10° NNE 04:18:53 48° ENE 04:18:53 48° ENE
Lacrosse 5 rocket 2.4 04:21:36 42° N 04:21:36 42° N 04:24:35 10° NE
Cosmos 1606 Rocket 4.0 04:25:42 10° N 04:29:57 56° E 04:30:10 55° E
Cosmos 2360 4.4 04:24:48 10° NNW 04:30:29 69° ENE 04:36:09 10° SSE
H-2A R/B 4.3 04:27:24 10° N 04:29:28 22° NW 04:29:28 22° NW
Cosmos 2279 Rocket 4.0 04:32:48 46° S 04:34:47 79° E 04:41:04 10° N
Cosmos 2228 4.3 04:31:25 10° N 04:35:25 38° ENE 04:37:29 23° SE
Cosmos 1892 Rocket 3.9 04:39:59 55° SE 04:40:33 60° E 04:44:55 10° NNE
Cosmos 1066 Rocket 4.1 04:44:17 61° WSW 04:44:55 67° W 04:50:21 10° N
Cosmos 2026 Rocket 4.0 04:39:19 10° NNW 04:45:39 67° W 04:47:24 47° SSW
ATLAS 3B R/B 3.6 04:47:02 23° S 04:51:10 45° ESE 04:57:44 10° NE
COSMOS 2487 3.7 04:52:33 33° NNW 04:52:33 33° NNW 04:54:48 10° N
Cosmos 1025 Rocket 4.3 04:53:04 27° NW 04:53:04 27° NW 04:55:47 10° NNW
Cosmos 2208 Rocket 4.0 04:51:46 56° WSW 04:52:30 63° WNW 04:57:44 10° NNE
Cosmos 1763 Rocket 3.8 04:53:31 37° S 04:55:32 64° ESE 05:00:48 10° NNE
Timation 2 Rocket 4.3 04:52:47 29° S 04:55:46 57° ESE 05:01:37 10° NNE
Cosmos 1898 Rocket 3.3 04:58:36 10° NNW 05:03:49 80° WSW 05:09:03 10° SSE
UNKNOWN OBJECT B 3.2 05:06:44 10° N 05:10:18 45° WNW 05:10:18 45° WNW
CZ-2D R/B 3.5 05:06:42 10° NNW 05:10:48 23° WNW 05:11:21 22° WNW
USA 215 3.2 05:04:15 10° NE 05:10:49 81° SE 05:14:17 31° SW
Cosmos 1980 Rocket 2.2 05:05:28 10° NNW 05:10:56 54° WSW 05:15:16 16° S
Cosmos 1655 Rocket 4.0 05:05:32 10° NNW 05:11:49 63° W 05:16:05 21° SSW
Lacrosse 4 Rocket 3.8 05:09:26 10° NW 05:09:50 12° NW 05:09:50 12° NW
Okean O Rocket 4.3 05:10:36 10° NE 05:13:23 16° E 05:16:09 10° SE
Cosmos 1697 Rocket 3.8 05:09:17 10° NW 05:12:50 26° W 05:12:50 26° W
Cosmos 304 Rocket 4.5 05:13:47 34° W 05:14:28 35° WNW 05:18:54 10° N
Cosmos 1937 Rocket 3.4 05:12:05 10° NNW 05:17:18 85° WSW 05:22:27 10° SSE
Cosmos 2082 Rocket 3.6 05:16:53 20° WNW 05:18:19 22° NW 05:22:39 10° N
SL-16 R/B 4.0 05:19:43 19° W 05:19:43 19° W 05:23:06 10° NW
Cosmos 2266 Rocket 4.0 05:14:22 10° N 05:20:28 78° E 05:26:36 10° S
Cosmos 858 Rocket 4.4 05:15:41 10° NNW 05:20:52 69° WSW 05:26:00 10° S
SL-16 R/B 2.8 05:15:38 10° NNW 05:21:16 60° ENE 05:26:51 10° SE
Meteor 1-22 Rocket 4.4 05:16:14 10° NNW 05:22:04 56° W 05:26:15 18° SSW
ARIANE 5 R/B 3.7 05:18:40 10° NNW 05:22:56 26° WNW 05:23:58 24° W
DNEPR-1 R/B 4.4 05:29:30 18° S 05:32:19 45° ESE 05:36:34 10° NE
Cosmos 990 Rocket 4.0 05:30:43 10° NNW 05:35:46 57° WSW 05:40:49 10° S
Cosmos 1814 Rocket 4.1 05:34:05 27° SW 05:36:43 55° WNW 05:41:49 10° N
Cosmos 2150 Rocket 4.0 05:31:36 10° NNW 05:37:05 79° WSW 05:42:31 10° SSE
Cosmos 1842 3.7 05:36:28 32° WSW 05:37:38 41° W 05:41:24 10° N
Cosmos 2322 Rocket 2.3 05:32:35 10° NNW 05:38:15 79° ENE 05:43:51 10° SSE
Cosmos 292 Rocket 3.7 05:36:09 18° SSW 05:39:46 88° ESE 05:44:37 10° NNE
Cosmos 1726 Rocket 4.4 05:36:32 10° NNW 05:40:11 27° W 05:40:46 26° WSW
Cosmos 1707 3.9 05:37:31 10° SSE 05:41:10 42° E 05:44:51 10° NNE
ADEOS II 2.4 05:37:16 10° N 05:42:19 49° WNW 05:45:42 20° SW
OAO 3 Rocket 4.2 05:41:40 23° SW 05:42:25 24° SSW 05:46:14 10° SSE
Cosmos 2298 Rocket 4.0 05:38:12 10° NNW 05:43:28 60° WSW 05:48:39 10° S
Cosmos 1953 2.6 05:39:34 10° N 05:43:40 73° E 05:47:41 10° SSE
PSLV R/B 4.1 05:44:41 10° NNE 05:48:33 65° ESE 05:52:17 10° S
USA 238 DEB 3.7 05:43:52 19° SW 05:48:57 71° NW 05:55:56 10° NNE
USA 238 3.7 05:43:57 19° SW 05:49:04 72° NW 05:56:03 10° NNE
PSLV R/B 3.4 05:45:23 10° N 05:49:37 79° WNW 05:53:38 11° SSW
Meteor 1-31 Rocket 4.4 05:48:22 10° NNE 05:51:56 34° E 05:55:26 10° SSE
Cosmos 1805 4.2 05:51:43 10° NNW 05:55:06 28° W 05:57:01 19° SW
Cosmos 1812 Rocket 3.7 05:51:14 10° N 05:55:44 82° E 06:00:10 10° S
Cosmos 2058 Rocket 4.1 05:52:31 10° NNW 05:56:14 27° W 05:58:41 17° SW
Cosmos 1378 3.0 05:53:19 10° S 05:57:03 83° W 06:00:49 10° N
Cosmos 1602 Rocket 3.6 05:55:42 11° SSW 05:59:49 57° W 06:04:06 10° N
Lacrosse 5 rocket 3.7 05:58:22 10° NW 06:00:24 13° NNW 06:02:23 10° N
CZ-4B R/B 4.1 05:55:53 10° NNE 06:01:17 50° E 06:06:34 10° S
Cosmos 44 3.5 05:58:27 10° NW 06:03:38 61° WSW 06:08:56 10° SSE
Cosmos 1758 3.8 06:04:23 10° NNW 06:08:05 39° W 06:11:47 10° SSW
Cosmos 841 Rocket 4.1 06:05:16 14° SW 06:09:15 39° WNW 06:14:08 10° N
BREEZE-M R/B 4.1 06:09:00 13° W 06:12:08 45° NNW 06:18:52 10° NE
Cosmos 1626 Rocket 4.2 06:09:26 11° SW 06:13:13 35° WNW 06:17:13 10° N
CZ-4B DEB 4.3 06:13:28 10° NNE 06:19:03 86° E 06:24:35 10° SSW
Meteor 1-28 Rocket 3.2 06:16:25 10° SSE 06:20:08 88° E 06:23:55 10° N
Meteor 2-5 Rocket 4.1 06:16:27 10° S 06:21:55 69° E 06:27:28 10° NNE
PSLV R/B 4.4 06:19:55 10° SW 06:22:33 28° SSE 06:25:12 10° E
Cosmos 44 Rocket 3.5 06:18:51 10° NW 06:23:55 59° WSW 06:29:00 10° SSE
SJ 16-02 1.3 06:19:52 10° NNW 06:24:16 69° WSW 06:28:38 10° S
NOSS 3-2 (C) 3.5 06:20:11 10° SSW 06:26:04 88° WNW 06:32:37 10° NNE
CZ-4B R/B 3.5 06:22:23 10° N 06:26:23 40° WNW 06:30:10 10° SW
Meteor PRIRODA 3.6 06:27:22 10° N 06:31:03 72° WNW 06:34:44 10° SSW
Cosmos 540 Rocket 4.0 06:27:55 10° SW 06:32:44 41° WNW 06:37:37 10° N
Cosmos 1553 Rocket 4.1 06:27:27 10° S 06:33:52 89° W 06:40:19 10° N
BREEZE-M DEB (TANK) 3.9 06:32:21 10° SSW 06:36:00 43° SE 06:39:50 10° ENE
IRS-1C Rocket 4.3 06:31:57 10° NNE 06:37:14 77° ESE 06:42:29 10° S
